Other Surface Observations
Issued by NWS Charleston, SC

Home | Current Version | Previous Version | Text Only | Print | Product List | Glossary On
Versions: 1 2 3 4 5 6 7 8 9 10 11 12 13 14 15 16 17 18 19 20 21 22 23 24 25 26 27 28 29 30 31 32 33 34 35 36 37 38 39 40 41 42 43 44 45 46 47 48 49 50
000
SXUS52 KCHS 280025
OSOCHS

MARINE OBSERVATIONS
NATIONAL WEATHER SERVICE CHARLESTON SC
700 PM EST SAT DEC 27 2014

...DOWNTOWN CHARLESTON AND HARBOR...

CITY           SKY/WX    TMP DP  RH WIND       PRES   REMARKS
WATERFRONT PRK   N/A     57 N/A N/A CALM        N/A
FORT JOHNSON   NOT AVBL

...LAKE MOULTRIE...

CITY           SKY/WX    TMP DP  RH WIND       PRES   REMARKS
PINOPOLIS        N/A     61  52  72 CALM      30.16F

...LAKE AND SUPPLEMENTAL COASTAL OBSERVATIONS...

STATION/POSITION TIME  TEMP    WIND        PRES    WAVE   SWELL
                       AIR SEA DIR/SP/G            HT/PER HT/PER/DIR
                 (UTC) (F)     (DEG/KT/KT) (MB)    (FT/S) (FT/S/D)
FORT PULASKI     0000   57 56   50/  5/  6 1024.9R
SAPELO ISLAND    0000   55     360/  5     1024.0S
UPR LAKE MARION  NOT AVBL
WINYAH BAY       0000   52      40/  1     1024.0S
LAKE MURRAY      0000   53        CALM     1023.4R
ACE BASIN NERRS  0000   55        CALM     1024.0S


...C-MAN AND BUOY OBSERVATIONS...

STATION/POSITION TIME  TEMP    WIND        PRES    WAVE   SWELL
                       AIR SEA DIR/SP/G            HT/PER HT/PER/DIR
                 (UTC) (F)     (DEG/KT/KT) (MB)    (FT/S) (FT/S/D)
BUOY 41004       0000   69 74   70/ 10/ 12 1023.8F   3/ 4   2/10
BUOY 41008       0000   61 59   60/  8/  8 1023.7R   2/13   2/100/13
FOLLY BEACH CMAN 0000   56      40/  3/  4 1024.8R
CAPERS NS BUOY   2300   56      70/  4/  6   N/A
FRIPP NS BUOY    NOT AVBL
5E ST. MARYS GA  0000      61                N/A     2/13   2/ 90/13


STATION/POSITION TIME  TEMP    WIND        PRES    WAVE   SWELL
                       AIR SEA DIR/SP/G            HT/PER HT/PER/DIR
                 (UTC) (F)     (DEG/KT/KT) (MB)    (FT/S) (FT/S/D)
FRYING PAN BUOY  0000   64 69   50/  4/  6 1025.9R   3/16   3/110/16
BUOY 41025       0000   63                 1025.1F   4/16
CAPE LOOKOUT NC  0000   56     160/  6/  7 1024.7F
BUOY 41002       NOT AVBL
BUOY 41010       0000   75 77   90/ 12/ 14 1022.9R   3/17   3/ 70/17
ST AUGUSTINE FL  0000   64     350/  9/ 10 1023.3R

$$



USA.gov is the U.S. government's official web portal to all federal, state and local government web resources and services.